Regional Weather Roundup
Issued by NWS

Home | Current Version | Previous Version | Graphics & Text | Print | Product List | Glossary On
Versions: 1 2 3 4 5 6 7 8 9 10 11 12 13 14 15 16 17 18 19 20 21 22 23 24 25 26 27 28 29 30 31 32 33 34 35 36 37 38 39 40 41 42 43 44 45 46 47 48 49 50
000
ASUS43 KMKX 140910
RWRWI

WISCONSIN REGIONAL WEATHER ROUNDUP
NATIONAL WEATHER SERVICE MILWAUKEE/SULLIVAN WI
300 AM CST THU DEC 14 2017

NOTE: "FAIR" INDICATES FEW OR NO CLOUDS BELOW 12,000 FEET WITH NO
SIGNIFICANT WEATHER AND/OR OBSTRUCTIONS TO VISIBILITY.

WIZ001-002-006>008-014>016-023>028-141000-
NORTHWEST WISCONSIN

CITY           SKY/WX    TMP DP  RH WIND       PRES   REMARKS
SUPERIOR ARPT  MOCLDY     0  -4  85 SW6       29.99R WCI -12
ASHLAND        CLOUDY     6   3  87 SW5       29.96R WCI  -3
HAYWARD        CLOUDY    18  13  80 CALM      29.94R
SIREN          FLURRIES  17  15  93 NW3       29.98S
CUMBERLAND     FOG       12  10  92 W3        29.96R VSB 1/4
RICE LAKE      PTCLDY     8   6  90 CALM      29.98R
CHETEK         MOCLDY    10   9  93 CALM      29.97R
LADYSMITH      CLOUDY    10   8  89 CALM      29.95R
EAU CLAIRE     CLOUDY     4   2  91 W3        29.98R
MENOMONIE      LGT SNOW   7   4  86 NW3       29.99R
NEW RICHMOND   CLOUDY    12   9  87 CALM      29.99R
OSCEOLA        CLOUDY    16  16 100 CALM      30.02R
$$

WIZ003>005-009-010-017-018-141000-
NORTH CENTRAL WISCONSIN

CITY           SKY/WX    TMP DP  RH WIND       PRES   REMARKS
MANITOWISH WTR CLOUDY    11  10  94 CALM      29.86S
ARBOR VITAE    FLURRIES  17  13  85 NW3       29.86S
WOODRUFF       FLURRIES  17  13  85 NW3       29.86S
RHINELANDER    CLOUDY    12   6  77 CALM      29.87R
EAGLE RIVER    FLURRIES  13   7  78 NW9       29.85S WCI   1
LAND O LAKES   CLOUDY    13   8  78 NW5       29.87R WCI   6
PHILLIPS       PTCLDY     4   3  96 CALM      29.89R
TOMAHAWK       MOCLDY     7   4  86 CALM      29.89S
MEDFORD        MOCLDY     5   2  88 CALM      29.91R
MERRILL        CLOUDY    11   8  87 NW3       29.91R
$$

WIZ029-030-035-036-043>047-141000-
CENTRAL WISCONSIN

CITY           SKY/WX    TMP DP  RH WIND       PRES   REMARKS
WAUSAU         PTCLDY     9   7  92 NW5       29.91R WCI   1
MOSINEE        CLOUDY    10   9  92 NW3       29.93R
MARSHFIELD     CLOUDY     4   2  91 NW7       29.92R WCI  -8
STEVENS POINT  MOCLDY     2   0  91 CALM      29.94S
WAUPACA        PTCLDY    11   7  84 W3        29.96R
WAUTOMA        MOCLDY     5   2  87 CALM      29.96R
WISC RAPIDS    CLOUDY     5   2  87 CALM      29.95R
CAMP DOUGLAS   CLEAR      6   2  86 W5        29.96R WCI  -3
$$

WIZ011>013-019>022-031-037>040-048>050-141000-
NORTHEAST WISCONSIN

CITY           SKY/WX    TMP DP  RH WIND       PRES   REMARKS
ANTIGO         MOCLDY     9   6  84 NW6       29.88R WCI   0
SHAWANO        MOCLDY     7   3  85 CALM      29.94R
OCONTO         PTCLDY    -4  -8  84 CALM      29.93R
STURGEON BAY   CLOUDY    18  10  71 NW18      29.90R WCI   2
GREEN BAY      PTCLDY     7   3  84 NW9       29.94R WCI  -7
MANITOWOC      PTCLDY     9   6  88 W9        29.93R WCI  -4
APPLETON       PTCLDY     7   3  85 NW9       29.93R WCI  -7
CLINTONVILLE   CLOUDY     9   3  78 W3        29.95R
OSHKOSH        CLOUDY     9   7  92 W8        29.94R WCI  -3
$$

WIZ032>034-041-042-053>061-141000-
SOUTHWEST WISCONSIN

CITY           SKY/WX    TMP DP  RH WIND       PRES   REMARKS
LA CROSSE      CLEAR     11   9  92 CALM      30.01R
SPARTA         CLEAR      3   1  90 CALM      29.99S
VIROQUA        CLEAR     10   9  98 NW3       29.96R
BOSCOBEL       PTCLDY    13   9  84 CALM      30.00R
PRAIRIE DU CHI CLEAR     17  11  77 CALM      30.00R
PLATTEVILLE    CLOUDY    13  11  92 N5        29.96R WCI   6
$$

WIZ056-057-062-063-064-067-068-141000-
SOUTH CENTRAL WISCONSIN

CITY           SKY/WX    TMP DP  RH WIND       PRES   REMARKS
REEDSBURG      PTCLDY    12  10  92 CALM      29.96R
BARABOO/DELLS  PTCLDY    10   8  90 CALM      29.96R
LONE ROCK      PTCLDY     9   7  92 CALM      29.99R
MINERAL POINT  CLEAR     18  12  79 N6        29.94R WCI   9
MADISON        CLEAR     11   8  88 NW5       29.95R WCI   3
MIDDLETON      CLEAR     14  10  85 NW3       29.96S
WATERTOWN      CLOUDY    11   9  90 NW5       29.95R WCI   3
MONROE         CLEAR     16  10  79 N8        29.94R WCI   5
JANESVILLE     PTCLDY    16  10  79 N7        29.95R WCI   6
$$

WIZ051-052-058>065-066-070>072-141000-
SOUTHEAST WISCONSIN

CITY           SKY/WX    TMP DP  RH WIND       PRES   REMARKS
MILWAUKEE      PTCLDY    16   9  74 NW9       29.92R WCI   4
WAUKESHA       CLOUDY    10   7  85 NW7       29.93R WCI   0
MILWAUKEE/TIMM CLEAR     12   5  73 NW8       29.94R WCI   1
RACINE         CLEAR     15   9  76 NW10      29.92R WCI   2
BURLINGTON     CLEAR     13  10  90 NW9       29.92R WCI   0
KENOSHA        CLEAR     15   8  73 NW9       29.91R WCI   3
FOND DU LAC    FLURRIES   9   4  80 NW7       29.94R WCI  -2
SHEBOYGAN      PTCLDY     9   7  92 NW8       29.92R WCI  -3
WEST BEND      CLOUDY    10   9  92 CALM      29.92R
JUNEAU         CLOUDY     8   5  89 CALM      29.95R
$$

LSZ147-162-141000-
LAKE SUPERIOR

STATION/POSITION TIME  TEMP    WIND        PRES    WAVE
                       AIR SEA DIR/SP/G            HT/PER
                 (UTC) (F)     (DEG/KT/KT) (MB)    (FT/S)
DEVILS ISLAND    0900   18     280/  5/  6 1015.6R
SAXON HARBOR     0830   18                 1013.9R
$$

LMZ867-665-643>646-141000-
LAKE MICHIGAN

STATION/POSITION TIME  TEMP    WIND        PRES    WAVE
                       AIR SEA DIR/SP/G            HT/PER
                 (UTC) (F)     (DEG/KT/KT) (MB)    (FT/S)
NORTHPORT PIER   0851   21     330/ 18     1011.9R
KEWAUNEE LAKESHO 0842    9     290/  4/  5 1011.8R
SHEBOYGAN LAKESH 0900   13     300/ 12/ 14 1014.4R
PORT WASHINGTON  0840   14     310/  8/ 15 1014.2R
MILWAUKEE LAKESH 0850   16     310/ 10/ 13   N/A
KENOSHA   LAKESH 0900   16     300/ 12/ 14 1012.9
$$

TC  - TEMPERATURE IN CELSIUS
VSB - VISIBILITY IN STATUTE MILES
WCI - WIND CHILL INDEX
HX  - HEAT INDEX





USA.gov is the U.S. government's official web portal to all federal, state and local government web resources and services.